Regional Weather Roundup
Issued by NWS Wakefield, VA

Home | Current Version | Previous Version | Text Only | Print | Product List | Glossary On
Versions: 1 2 3 4 5 6 7 8 9 10 11 12 13 14 15 16 17 18 19 20 21 22 23 24 25 26 27 28 29 30 31 32 33 34 35 36 37 38 39 40 41 42 43 44 45 46 47 48 49 50
000
ASUS41 KAKQ 280515
RWRAKQ

REGIONAL WEATHER ROUNDUP
NATIONAL WEATHER SERVICE WAKEFIELD VA
100 AM EDT FRI JUL 28 2017

Note: "fair" indicates few or no clouds below 12,000 feet with no
significant weather and/or obstructions to visibility. * = Denotes
station may not report precipitation (e.g., rain,snow,etc.),
thunder or fog.

VAZ042-051-052>054-056-280600-
NORTHERN VIRGINIA

CITY           SKY/WX    TMP DP  RH WIND       PRES   REMARKS
WASH NATIONAL  MOCLDY    79  76  90 S5        29.84F
DULLES         PTCLDY    74  72  93 CALM      29.86S
FORT BELVOIR   CLOUDY    76  73  92 CALM      29.84S
QUANTICO       PTCLDY    78  73  84 W3        29.85S
FREDERICKSBRG* CLEAR     74  71  91 SW3       29.84F
STAFFORD*      PTCLDY    72  72 100 CALM      29.89S
WARRENTON      CLEAR     70  66  87 CALM      29.85S FOG
CULPEPER*      PTCLDY    71  71  99 CALM      29.86F FOG
MANASSAS*      CLEAR     74  72  93 CALM      29.85F
LEESBURG*      CLEAR     75  73  94 CALM      29.87F
WINCHESTER     CLEAR     68  66  94 CALM      29.88S
FRONT ROYAL*   CLEAR     70  70 100 CALM      29.87F
LURAY*         CLEAR     70  70 100 CALM      29.89S FOG
$$

VAZ048-049-060>072-079>083-280600-
CENTRAL AND SOUTH CENTRAL VIRGINIA

CITY           SKY/WX    TMP DP  RH WIND       PRES   REMARKS
RICHMOND       CLOUDY    76  68  76 SW8       29.86F
CHESTERFIELD*  FAIR      75  69  81 CALM      29.87F
PETERSBURG*    PTCLDY    73  69  87 CALM      29.87F
HANOVER        CLOUDY    74  67  78 SW3       29.87F
TAPPAHANNOCK*  CLOUDY    77  61  56 SW3       29.86F
QUINTON*       CLOUDY    76  70  82 CALM      29.85F
CHARLOTTSVILLE CLOUDY    75  72  90 CALM      29.87S
GORDONSVILLE*  CLOUDY    70  70 100 CALM      29.86S FOG
ORANGE*        CLEAR     70  70 100 CALM      29.86F
LOUISA*        MOCLDY    68  66  94 CALM      29.87S FOG
BUMPASS*       FAIR      70  70 100 SW5       29.86F
FARMVILLE*     CLOUDY    72  70  93 CALM      29.87F
CREWE*         MOCLDY    74  70  87 CALM      29.88F
FORT PICKETT*  FAIR     N/A N/A N/A SW7       29.88F
CHASE CITY*    FAIR      72  72  99 CALM      29.89F
CLARKSVILLE*   FAIR      72  72 100 SW3       29.90S
SOUTH HILL*    PTCLDY    73  72  98 SW3       29.95F
LAWRENCEVILLE* FAIR      73  72  97 CALM      29.89F
EMPORIA*       LGT RAIN  73  72  94 CALM      29.89F
$$

VAZ088>098-280600-
SOUTHEAST VIRGINIA

CITY           SKY/WX    TMP DP  RH WIND       PRES   REMARKS
NORFOLK        LGT RAIN  79  70  74 SW15      29.87S
VIRGINIA BEACH LGT RAIN  78  67  68 SW14      29.88S
NORFOLK NAVAL  TSTM      80  69  69 SW9       29.89F
WEST POINT*    CLOUDY    78  73  83 W3        29.87S
SALUDA*        MOCLDY    77  75  94 SW3       29.85F
NEWPORT NEWS   CLOUDY    80  72  76 SW17G24   29.87F
LANGLEY AFB    LGT RAIN  81  72  74 SW23      29.87S
FORT EUSTIS    CLOUDY    79  72  78 S5        29.85S
WILLIAMSBURG*  MOCLDY    81  73  78 SW6       29.88S
HR EXEC AP*    FAIR      79  68  69 SW8       29.86F
FRANKLIN*      LGT RAIN  77  70  78 S9        29.88F
US460-WAKEFLD  LGT RAIN  76  75  97 W9        29.89S FOG
$$

VAZ020-022-025-037-045-280600-
WEST CENTRAL AND SOUTHWEST VIRGINIA

CITY           SKY/WX    TMP DP  RH WIND       PRES   REMARKS
STAUNTON*      CLOUDY    71  69  92 CALM      29.93S
WAYNESBORO*    CLOUDY    72  69  90 W3        29.92S
HOT SPRINGS VA FOG       64  63  94 CALM      30.04S VSB 1/2
LYNCHBURG      CLOUDY    71  70  96 CALM      29.91F
DANVILLE       MOCLDY    71 N/A N/A CALM      29.90F
SOUTH BOSTON*  CLOUDY    72  70  95 CALM      29.90F
MARTINSVILLE   CLOUDY    70  69  96 CALM      29.94F
ROANOKE        CLOUDY    73  70  90 CALM      29.94F
BLACKSBURG     CLOUDY    69  68  95 CALM      30.00F
DUBLIN*        PTCLDY    70  65  84 CALM      29.99F
MARION*        CLOUDY    69  65  88 SW3       30.03S
HILLSVILLE*    PTCLDY    68  64  86 CALM      30.00S
RICHLANDS*     MOCLDY    67  65  93 CALM      30.01F
WISE*          CLOUDY    68  68 100 SW6       30.02F
ABINGDON*      CLOUDY    72  71  99 CALM      29.99F FOG
$$

MDZ021>025-VAZ099-100-280600-
SOUTHERN MARYLAND AND THE DELMARVA PENINSULA

CITY           SKY/WX    TMP DP  RH WIND       PRES   REMARKS
PATUXENT RIVER CLOUDY    77  76  96 W6        29.83F
BAY BRIDGE APT CLOUDY    77  72  83 E3        29.84F
LEONARDTOWN    MOCLDY    77  70  78 SW5       29.86S
DOVER          CLEAR     73  73 100 CALM      29.83F
GEORGETOWN     MOCLDY    74  71  91 SE3       29.85F
EASTON         MOCLDY    76  73  93 CALM      29.88S
CAMBRIDGE      CLEAR     73  72  94 CALM      29.84F
SALISBURY      CLOUDY    74  73  97 S3        29.84F
OCEAN CITY     CLOUDY    78  74  87 SW7       29.84F
WALLOPS ISLAND TSTM      71  70  96 E8        29.86F FOG
ACCOMACK*      RAIN      78  74  90 SW8       29.86S
$$

NCZ012>017-030>032-280600-
NORTH CENTRAL AND EASTERN NORTH CAROLINA

CITY           SKY/WX    TMP DP  RH WIND       PRES   REMARKS
ROANOKE RAPIDS FAIR      77  72  83 S7        29.90S
RALEIGH        CLOUDY    76  74  93 S5        29.91F
ELIZABETH CITY PTCLDY    79  74  84 SW14      29.90F
AHOSKIE*         N/A     75  68  78 S5        29.91S
EDENTON*       MOCLDY    80  73  79 SW10      29.92S
CURRITUCK*     PTCLDY    79  72  77 SW8       29.90F
KILL DEVIL HLS PTCLDY    78  70  74 SW5       29.90F
MANTEO         PTCLDY    79  71  76 SW14      29.92F
CAPE HATTERAS  CLOUDY    80  71  74 SW12G21   29.94F
TARBORO*       NOT AVBL
GOLDSBORO      NOT AVBL
WASHINGTON     CLOUDY    77  73  85 S5        29.93S
GREENVILLE     CLOUDY    79  73  83 SW10G17   29.93F
NEW BERN       PTCLDY    76  74  93 S6        29.95F
WILMINGTON     CLEAR     76  74  93 CALM      29.94F
$$

VAZ048-280600-
ELSEWHERE

CITY           SKY/WX    TMP DP  RH WIND       PRES   REMARKS
HARRISBURG PA  LGT RAIN  74  73  97 NW3       29.86S FOG
BALTIMORE      MOCLDY    77  71  82 CALM      29.84F
ANNAPOLIS      CLOUDY    80  77  90 SE3       29.83F
ANDREWS AFB    CLEAR     74  73  95 CALM      29.84S
PHILADELPHIA   PTCLDY    73  69  87 CALM      29.86F
HENDERSON NC   CLOUDY    71  69  92 SW6       29.91S
GREENSBORO     CLOUDY    74  74 100 SW6       29.91F
ROCKY MOUNT      N/A     75  73  93 S8        29.91F
$$

VAZ100-280600-
MARINE

STATION/POSITION TIME  TEMP    WIND        PRES    WAVE   SWELL
                       AIR SEA DIR/SP/G            HT/PER HT/PER
                 (UTC) (F)     (DEG/KT/KT) (MB)    (FT/S) (FT/S)
BRANDYWINE LGT   0448          200/  7/  7   N/A
CAPE MAY NJ      0448   74 76  170/  3/  5 1010.4F
LEWES DE         0448   75 74  200/  3/  5 1010.3F
15NM E FENWICK I 0450   78 76  190/ 10/ 12 1011.2F   3/ 5   2/ 5
OCEAN-CITY-INLET 0448   74 73  210/  6/  7 1010.9F
WACHAPREAGUE VA  0448   80 80  180/  6/ 10 1010.7F
THOMAS POINT MD  0500   80 81  180/  9/ 10   N/A
GOOSES REEF MD   0500   82 82  220/  6/  8 1011.1    1
COVE POINT MD    0448   80     260/  6/  9 1010.9F
SOLOMONS ISLAND  0448   80 83  250/  8/  9   N/A
BISHOPS HEAD MD  0448   82 81  220/  8/  9 1010.3F
PINEY POINT MD   0448          310/  8/  9   N/A
CAMBRIDGE MD     0442   75 84              1011.2F
LEWISETTA VA     0448   81 83  270/  8/ 10 1010.2F
RAPPAHANNOCK LGT 0448          210/ 19/ 21 1011.2F
STINGRAY PT      0450   81     240/ 14/ 16 1011.0F
YORK RVR RNG VA  0448   81     240/ 16/ 18 1011.3F
YORKTOWN VA      0448   79 82  230/  8/ 10 1010.8F
JAMESTOWN VA     0500      85  210/  8/ 12   N/A
DOMINION TERM VA 0448   80     220/ 15/ 19 1011.6S
KIPTOPEKE VA     0448      78  220/ 14/ 16   N/A
CHES BAY BRIDGE  0448   80 75  220/ 18/ 22 1011.1F
CAPE HENRY VA    0448   80     210/ 10/ 16   N/A
WILLOUBY STN VA  0448   79     220/ 17/ 20 1011.4F
S CRANEY ISL VA  0448   80     210/ 10/ 15 1011.5F
CAPE HENRY BUOY  0500      72                N/A     3/ 9
1ST LANDING BUOY 0500   80 78              1011.3    2/ 3
64NM E OF VA BCH 0450   79 77  210/ 17/ 21 1012.5F   4/ 4   2/ 8
DUCK PIER NC     0448   80 66  200/ 17/ 22 1012.0F
44100 DUCK FRF   0435      72                N/A     3/10
44056 DUCK FRF   0430      71                N/A     2/10
OREGON INLET NC  0448          200/ 19/ 23   N/A
HATTERAS NC      0448   80 80  190/  5/ 10 1013.8F
DIAMOND SHLS NC  0450   81 83  190/ 17/ 21 1013.6F   3/ 8   2/ 8
CAPE LOOKOUT NC  0500   80     190/ 10/ 12 1013.7F
$$



USA.gov is the U.S. government's official web portal to all federal, state and local government web resources and services.